DECAYED
Showing default

ORESAT0, 52017 (Decayed)

Orbit data source: Space-Track

ORESAT0, 52017 was a payload satellite owned by Portland State (US) in LEO that was launched on Tue, 15 Mar 2022 UTC via an ASTRA ROCKET 3.3 launch vehicle from the Kodiak Island, Alaska (KODAK). Payload-class satellites include a variety of spacecraft equipped with specific instruments for various scientific and technological missions. These include communications satellites like Starlink; space stations such as the ISS; scientific satellites like the Hubble; Earth observation satellites from companies like Planet Labs, Umbra, and HawkEye 360; GPS; miniature CubeSats for education and research; and military/defense satellites.

Not visible in the next 10 days
Identifier
52017, 2022-026K
Orbit
Decayed
Last TLE update
9 months ago
Origin
Manufacturer
Portland State
Mission
Decayed Amateur Technology
Bus & Motor
CUBESAT 1U, Unknown motor
Mass
1 kg wet, 1 kg dry
Launch date (UTC)
2022-03-15 (3 years ago)
Launch vehicle
ASTRA ROCKET 3.3
Launch site
Kodiak Island, Alaska (KODAK)
Object type
Payload
Rocket body
Debris
Shape & HBR
Box, 0.1 m
Radar Cross Section
0.015 m², Small (<0.1 m²)

Expand to show TLE details & history

TLE from 9 months ago
0 ORESAT0
1 52017U 22026K   24273.45232859  .15962284  26361-5  29990-3 0  9995
2 52017  97.4545 295.1270 0013084 250.0501 109.9393 16.46521474142074
Epoch: 2024-09-29T10:51Z
TLE epoch observation values (Epoch: 2024-09-29T10:51:21.19Z)
Latitude
0.00003°
Longitude
123.59415°
Altitude
154.693 km
Speed
7.812 km/s
True Right ascension
19h 40m 30s
True Declination
0° 00' 00"
Sunlit
Object was in full shadow at epoch
Visualization orbit readout
Visualization observer readout
Orbital elements
Apogee altitude
153.849 km
Perigee altitude
136.778 km
Semi-major axis
6,523.45 km
Eccentricity
0.00131
Inclination
97.4545°
RAAN
295.127°
Arg. of periapsis
250.0501°
True anomaly
Unknown
Mean anomaly
109.9393°
Eccentric anomaly
Unknown
Mean motion
4.11934 °/min
Orbital period
87.39 mins
BSTAR
0.0002999
Loading maneuver chart data...
Loading SW <> Apogee altitude chart data...

ORESAT0 Visibility

Observer location: undefined°, undefined°

This satellite is decayed
Span
Click to sort rows by Start time (UTC) header in descending order
Start Az.
Max El. time (UTC)
Max El. Az.
Max El.
End time (UTC)
End Az.
|